Location: Harmony
(28.2000°N, 81.1500°W)
Time: 17:59:28
(UTC-04:00)

Daily predictions for brighter satellites

Satellite Brightness Start Highest point End
(mag) Time Altitude Azimuth Time Altitude Azimuth Time Altitude Azimuth
NOAA 12 4.1 20:08:17 10° SSE 20:13:30 76° ENE 20:18:43 10° N
Centaur AC-119 3.8 20:13:24 10° W 20:18:11 26° SW 20:20:22 10° SSE
Cosmos 1697 Rocket 4.3 20:17:54 10° SE 20:20:18 13° E 20:22:42 10° ENE
Helios 1A 3.0 20:17:12 10° SSE 20:21:17 60° ENE 20:25:23 10° N
Cosmos 2278 4.0 20:16:47 10° S 20:22:09 46° ESE 20:27:33 10° NNE
Orbus 7S 4.0 20:13:55 10° W 20:23:30 82° S 20:26:47 10° E
Cosmos 968 Rocket 3.5 20:21:06 10° N 20:26:09 58° ENE 20:31:09 10° SSE
Meteor 2-4 Rocket 4.1 20:20:54 10° N 20:26:33 47° E 20:32:14 10° SSE
GOES 2 Rocket 3.1 20:23:46 10° W 20:27:55 67° SSW 20:31:57 12° ESE
Cosmos 1315 Rocket 3.6 20:24:36 10° SSW 20:28:30 57° W 20:32:28 10° N
ALOS 3.1 20:25:37 10° SE 20:29:43 32° ENE 20:33:51 10° N
Cosmos 1809 Rocket 4.5 20:24:02 10° S 20:30:12 86° E 20:36:22 10° N
Cosmos 1455 Rocket 3.3 20:31:13 10° SSE 20:35:18 44° E 20:39:25 10° NNE
Cosmos 2369 3.8 20:29:56 10° S 20:35:25 55° ESE 20:40:57 10° NNE
Resurs 1-3 3.6 20:31:41 10° SSE 20:36:02 69° ENE 20:40:23 10° N
H-2A R/B 3.9 20:32:58 11° SE 20:36:05 26° ENE 20:39:21 10° NNE
Cosmos 1892 Rocket 4.0 20:32:36 10° N 20:36:49 40° E 20:41:02 10° SSE
Cosmos 1025 Rocket 2.9 20:33:48 10° N 20:38:08 74° E 20:42:26 10° S
METEOR-M 4.2 20:35:06 10° SSE 20:40:26 84° WSW 20:45:49 10° NNW
Cosmos 1000 Rocket 4.5 20:37:59 10° N 20:44:20 79° E 20:50:38 10° S
Meteor 1-23 Rocket 4.2 20:40:40 10° N 20:46:17 67° E 20:51:58 10° SSE
IUS-26 SRM-1 3.1 20:46:37 10° WSW 20:48:20 27° S 20:49:23 20° SE
FengYun 1-2 T 4.3 20:46:29 10° SSE 20:52:09 88° ENE 20:57:48 10° NNW
Centaur D-1A AC-32 2.1 20:47:17 10° W 20:52:19 61° S 20:54:05 24° ESE
CZ-2D R/B 3.5 20:49:33 13° SSE 20:52:48 49° ENE 20:56:32 10° N
Cosmos 1934 Rocket 3.9 20:46:51 10° S 20:52:55 87° E 20:59:08 10° N
Resurs 01 Rocket 2.5 20:48:46 10° S 20:53:03 51° W 20:57:22 10° NNW
ATLAS 3B CENTAUR R/B -0.8 20:53:28 10° W 20:55:26 79° S 20:55:33 73° SE
Hubble Space Telescope 0.7 20:56:56 10° W 21:01:05 74° S 21:03:00 30° ESE
Cosmos 1777 Rocket 3.9 21:01:28 10° NNW 21:06:45 84° ENE 21:11:14 14° SSE
USA 186 1.5 21:09:57 44° SSE 21:10:47 70° ENE 21:13:50 10° N
FENGYUN 3A 3.6 21:05:45 10° SSE 21:11:05 90° E 21:16:28 10° NNW
Cosmos 1346 Rocket 2.6 21:10:02 10° N 21:13:59 76° E 21:15:55 29° SSE
GPS 2-15 Rocket1 4.3 21:10:17 10° SW 21:14:07 25° S 21:14:42 24° SSE
OTV 4 2.8 21:14:20 10° NNW 21:16:10 15° N 21:16:45 14° NNE
Cosmos 2227 Rocket 2.6 21:11:08 10° N 21:16:31 44° ENE 21:18:20 34° ESE
Cosmos 1656 3.6 21:11:07 10° S 21:16:44 71° ESE 21:22:18 10° NNE
Cosmos 1500 4.4 21:18:30 27° NE 21:18:30 27° NE 21:20:38 10° NNE
NOSS 3-4 (A) 3.9 21:17:15 10° NNW 21:24:23 65° ENE 21:28:01 32° SE
NOSS 3-4 (C) 3.9 21:17:23 10° NNW 21:24:30 64° ENE 21:28:06 33° SE
Cosmos 2082 3.8 21:24:28 10° N 21:29:58 55° ENE 21:31:16 45° ESE
Cosmos 2297 Rocket 2.6 21:26:51 10° N 21:32:11 42° ENE 21:32:48 41° E
Envisat 3.6 21:34:13 38° ENE 21:34:13 38° ENE 21:38:40 10° N
Cosmos 2173 Rocket 4.2 21:32:57 40° SE 21:34:24 47° E 21:40:26 10° NNE
ATLAS 2A CENTAUR R/B 3.0 21:33:33 10° WSW 21:35:05 15° SW 21:35:05 15° SW
SJ-11-01 4.2 21:38:16 63° E 21:38:35 65° ENE 21:43:14 10° N
Milstar 3 Cent rocket 4.3 21:16:01 10° W 21:39:27 89° N 21:45:56 32° E
Cosmos 2100 Rocket 3.9 21:42:26 40° SSE 21:44:44 65° E 21:50:55 10° NNE
Cosmos 2061 Rocket 4.0 21:44:13 49° SE 21:45:33 59° E 21:51:42 10° NNE
OAO 2 Rocket 4.3 21:42:02 10° W 21:46:49 41° N 21:48:32 31° NE
YAOGAN 11 4.1 21:50:15 87° WSW 21:50:16 87° W 21:54:46 10° NNW
Cosmos 1975 4.4 21:50:43 11° SSW 21:54:21 35° W 21:58:07 10° NNW
Iridium 4 Rocket 3.5 21:51:16 10° N 21:56:10 66° W 21:56:49 58° SW
Cosmos 1697 Rocket 3.2 21:58:05 10° SSW 22:03:39 58° WNW 22:09:13 10° N
Cosmos 1066 Rocket 4.2 21:58:07 10° N 22:03:26 71° NE 22:03:26 71° NE
H-2A R/B 3.9 22:06:31 21° N 22:06:31 21° N 22:08:01 10° N
ERS-1 Rocket 3.2 22:07:44 66° WSW 22:07:44 66° WSW 22:12:44 10° NNW
Lacrosse 5 rocket 3.6 22:08:28 10° NNW 22:09:24 16° NNW 22:09:24 16° NNW
Cosmos 1898 Rocket 4.3 22:15:28 10° NNW 22:19:08 46° N 22:19:08 46° N
Cosmos 1459 Rocket 4.3 22:21:24 51° SW 22:22:35 61° W 22:28:36 10° N
Cosmos 1980 Rocket 2.8 22:26:51 53° NNW 22:26:51 53° NNW 22:31:23 10° NNE
Lacrosse 5 4.0 22:37:39 10° NNW 22:39:26 19° N 22:39:26 19° N
Cosmos 2227 Rocket 4.4 22:56:31 10° WNW 23:00:07 17° W 23:00:12 17° W
CZ-3C R/B 3.9 22:56:57 10° W 23:09:52 30° SW 23:09:52 30° SW
Cosmos 2297 Rocket 4.5 23:12:03 10° WNW 23:14:38 17° W 23:14:38 17° W
